| time (UTC) | temp F | wind direction | speed knots | gust knots | rain 1hr in | rain 24hr in | rain mn in | humidity % | barometer mb |
| 20260505111516 | 46 | 0.0 | 0.0 | 0.00 | 0.00 | 0.00 | 94 | 1008.8 | |
| 20260505101503 | 42 | 0.0 | 0.0 | 0.00 | 0.00 | 0.00 | 94 | 1008.5 | |
| 20260505100110 | 40 | 0.0 | 0.0 | 0.00 | 0.00 | 0.00 | 93 | 1008.3 | |
| 20260505094608 | 40 | 0.0 | 0.0 | 0.00 | 0.00 | 0.00 | 93 | 1008.2 | |
| 20260505093059 | 39 | 0.0 | 0.0 | 0.00 | 0.00 | 0.00 | 93 | 1008.1 | |
| 20260505091558 | 39 | 0.0 | 0.0 | 0.00 | 0.00 | 0.00 | 93 | 1008.2 | |
| 20260505090109 | 39 | 0.0 | 0.0 | 0.00 | 0.00 | 0.00 | 92 | 1008.1 | |
| 20260505084558 | 39 | 0.0 | 0.0 | 0.00 | 0.00 | 0.00 | 92 | 1008.0 | |
| 20260505083107 | 39 | 0.0 | 0.0 | 0.00 | 0.00 | 0.00 | 92 | 1008.0 | |
| 20260505081553 | 39 | 0.0 | 0.0 | 0.00 | 0.00 | 0.00 | 92 | 1008.0 | |
| 20260505080056 | 40 | 0.0 | 0.0 | 0.00 | 0.00 | 0.00 | 92 | 1008.1 | |
| 20260505074550 | 40 | 0.0 | 0.0 | 0.00 | 0.00 | 0.00 | 92 | 1008.3 | |
| 20260505073056 | 40 | 0.0 | 0.0 | 0.00 | 0.00 | 0.00 | 92 | 1008.2 | |
| 20260505071546 | 40 | 0.0 | 0.0 | 0.00 | 0.00 | 0.00 | 91 | 1008.2 | |
| 20260505070052 | 41 | 0.0 | 0.0 | 0.00 | 0.00 | 0.00 | 91 | 1008.2 | |
| 20260505064541 | 42 | 0.0 | 0.0 | 0.00 | 0.00 | 0.00 | 91 | 1008.1 | |
| 20260505063041 | 42 | 0.0 | 0.0 | 0.00 | 0.00 | 0.00 | 91 | 1007.9 | |
| 20260505061538 | 43 | 0.0 | 0.0 | 0.00 | 0.00 | 0.00 | 92 | 1007.9 | |
| 20260505060036 | 43 | 0.0 | 0.0 | 0.00 | 0.00 | 0.00 | 91 | 1008.0 | |
| 20260505054534 | 43 | 0.0 | 0.0 | 0.00 | 0.00 | 0.00 | 91 | 1007.8 | |
| 20260505053032 | 43 | 0.0 | 0.0 | 0.00 | 0.00 | 0.00 | 91 | 1007.5 | |
| 20260505051531 | 44 | 0.0 | 0.0 | 0.00 | 0.00 | 0.00 | 91 | 1007.7 | |
| 20260505041542 | 45 | 0.0 | 0.0 | 0.00 | 0.00 | 0.00 | 91 | 1007.7 | |
| 20260505040022 | 44 | 0.0 | 0.0 | 0.00 | 0.00 | 0.00 | 90 | 1007.9 | |
| 20260505034521 | 44 | 0.0 | 0.0 | 0.00 | 0.01 | 0.00 | 90 | 1007.8 | |
| 20260505033021 | 45 | 0.0 | 0.0 | 0.00 | 0.01 | 0.00 | 90 | 1007.9 | |
| 20260505031520 | 45 | 0.0 | 0.0 | 0.00 | 0.01 | 0.00 | 89 | 1007.7 | |
| 20260505030021 | 45 | 0.0 | 0.0 | 0.00 | 0.01 | 0.00 | 89 | 1007.8 | |
| 20260505024521 | 46 | 0.0 | 0.0 | 0.00 | 0.01 | 0.00 | 89 | 1008.0 | |
| 20260505023017 | 46 | 0.0 | 0.0 | 0.00 | 0.01 | 0.00 | 89 | 1007.9 | |
| 20260505021518 | 46 | 0.0 | 0.0 | 0.00 | 0.01 | 0.00 | 89 | 1007.8 | |
| 20260505020018 | 46 | 0.0 | 0.0 | 0.00 | 0.01 | 0.00 | 89 | 1007.8 | |
| 20260505014516 | 46 | 0.0 | 0.0 | 0.00 | 0.02 | 0.00 | 89 | 1007.6 | |
| 20260505013018 | 46 | 0.0 | 0.0 | 0.00 | 0.02 | 0.00 | 90 | 1007.5 | |
| 20260505011512 | 46 | 0.0 | 0.0 | 0.00 | 0.02 | 0.00 | 89 | 1007.3 | |
| 20260505010009 | 47 | 0.0 | 0.0 | 0.00 | 0.02 | 0.00 | 88 | 1007.0 | |
| 20260505004508 | 47 | 0.0 | 0.0 | 0.00 | 0.04 | 0.00 | 88 | 1007.0 | |
| 20260505003006 | 47 | 0.0 | 0.0 | 0.00 | 0.04 | 0.00 | 86 | 1006.8 | |
| 20260505001504 | 49 | 0.0 | 0.0 | 0.00 | 0.04 | 0.00 | 83 | 1006.4 | |
| 20260505000004 | 50 | 0.0 | 0.0 | 0.00 | 0.04 | 0.00 | 80 | 1006.0 | |
| 20260504234504 | 52 | 0.0 | 0.0 | 0.00 | 0.07 | 0.00 | 79 | 1005.9 | |
| 20260504233003 | 53 | 0.0 | 0.0 | 0.00 | 0.07 | 0.00 | 77 | 1005.7 | |
| 20260504231502 | 54 | 0.0 | 0.0 | 0.00 | 0.07 | 0.00 | 74 | 1005.4 | |
| 20260504230002 | 55 | 0.0 | 0.0 | 0.00 | 0.07 | 0.00 | 72 | 1005.2 | |
| 20260504224502 | 57 | 0.0 | 0.0 | 0.00 | 0.08 | 0.00 | 69 | 1005.0 | |
| 20260504223001 | 57 | 0.0 | 0.0 | 0.00 | 0.08 | 0.00 | 68 | 1004.7 | |
| 20260504221559 | 58 | 0.0 | 0.0 | 0.00 | 0.08 | 0.00 | 67 | 1004.5 | |
| 20260504220101 | 59 | 0.0 | 0.0 | 0.00 | 0.08 | 0.00 | 64 | 1004.2 | |
| 20260504214658 | 59 | 0.0 | 0.0 | 0.00 | 0.10 | 0.00 | 64 | 1004.2 | |
| 20260504213130 | 60 | 0.0 | 0.0 | 0.00 | 0.10 | 0.00 | 62 | 1003.9 | |
| 20260504211605 | 60 | 0.0 | 0.0 | 0.00 | 0.10 | 0.00 | 62 | 1003.9 | |
| 20260504210057 | 59 | 0.0 | 0.0 | 0.00 | 0.10 | 0.00 | 62 | 1003.9 | |
| 20260504204557 | 59 | 0.0 | 0.0 | 0.00 | 0.13 | 0.00 | 62 | 1003.7 | |
| 20260504203117 | 60 | 0.0 | 0.0 | 0.00 | 0.13 | 0.00 | 61 | 1003.7 | |
| 20260504201555 | 60 | 0.0 | 0.0 | 0.00 | 0.13 | 0.00 | 62 | 1003.9 | |
| 20260504200054 | 60 | 0.0 | 0.0 | 0.00 | 0.13 | 0.00 | 63 | 1003.9 | |
| 20260504194603 | 59 | 0.0 | 0.0 | 0.00 | 0.16 | 0.00 | 63 | 1003.9 | |
| 20260504193100 | 59 | 0.0 | 0.0 | 0.00 | 0.16 | 0.00 | 63 | 1003.9 | |
| 20260504191553 | 57 | 0.0 | 0.0 | 0.00 | 0.16 | 0.00 | 64 | 1004.1 | |
| 20260504190113 | 56 | 0.0 | 0.0 | 0.00 | 0.16 | 0.00 | 70 | 1004.5 | |
| 20260504184559 | 55 | 0.0 | 0.0 | 0.00 | 0.24 | 0.00 | 65 | 1004.5 | |
| 20260504183050 | 56 | 0.0 | 0.0 | 0.00 | 0.24 | 0.00 | 61 | 1004.4 | |
| 20260504181549 | 56 | 0.0 | 0.0 | 0.00 | 0.24 | 0.00 | 62 | 1004.2 | |
| 20260504180049 | 55 | 0.0 | 0.0 | 0.00 | 0.24 | 0.00 | 62 | 1004.0 | |
| 20260504174551 | 57 | 0.0 | 0.0 | 0.00 | 0.39 | 0.00 | 61 | 1003.5 | |
| 20260504173052 | 59 | 0.0 | 0.0 | 0.00 | 0.39 | 0.00 | 52 | 1003.4 | |
| 20260504171547 | 59 | 0.0 | 0.0 | 0.00 | 0.39 | 0.00 | 48 | 1003.3 |